Location: ??????
(55.6130°N, 37.7882°E)
Time: 18:21:08
(UTC+00:00)

Cosmos 1943 Rocket - Pass Details

Date: 14 April 2024
Orbit: 810 x 845 km, 71.0° (Epoch: 27 May)

Event Time Altitude Azimuth Distance (km) Brightness Sun altitude
Rises 01:11:44 0° 324° (NW) 3,403 5.3 -10.2°
Reaches altitude 10° 01:14:16 10° 318° (NW) 2,469 4.5 -9.9°
Maximum altitude 01:19:36 44° 248° (WSW) 1,152 2.5 -9.3°
Drops below altitude 10° 01:24:56 10° 178° (S) 2,462 4.3 -8.7°
Sets 01:27:28 0° 172° (S) 3,393 5.1 -8.4°
